Time,TemperatureF,DewpointF,PressureIn,WindDirection,WindDirectionDegrees,WindSpeedMPH,WindSpeedGustMPH,Humidity,HourlyPrecipIn,Conditions,Clouds,dailyrainin,SoftwareType,DateUTC
2013-01-08 00:00:00,29.7,19.0,29.35,ENE,68,5.8,5.8,64,0.00,,FEW250,0.00,VWS V14.01,2013-01-08 05:00:00,
2013-01-08 00:01:00,29.7,19.0,29.35,NNE,22,2.0,2.0,64,0.00,,FEW250,0.00,VWS V14.01,2013-01-08 05:01:00,
2013-01-08 00:02:00,29.7,19.0,29.35,ENE,68,3.6,3.6,64,0.00,,FEW250,0.00,VWS V14.01,2013-01-08 05:02:00,
2013-01-08 00:07:00,29.7,19.0,29.35,NNE,22,6.3,6.3,64,0.00,,SCT240,0.00,VWS V14.01,2013-01-08 05:07:00,
2013-01-08 00:12:00,29.7,19.0,29.35,NE,45,3.1,3.1,64,0.00,,SCT240,0.00,VWS V14.01,2013-01-08 05:12:00,
2013-01-08 00:16:00,29.7,19.4,29.35,ENE,68,3.1,3.1,65,0.00,,SCT240,0.00,VWS V14.01,2013-01-08 05:16:00,
2013-01-08 00:21:00,29.7,19.4,29.35,NNE,22,1.3,1.3,65,0.00,,SCT240,0.00,VWS V14.01,2013-01-08 05:21:00,
2013-01-08 00:26:00,29.7,19.4,29.32,NE,45,4.3,4.3,65,0.00,,SCT240,0.00,VWS V14.01,2013-01-08 05:26:00,
2013-01-08 00:31:00,29.7,19.4,29.32,NE,45,1.3,1.3,65,0.00,,SCT240,0.00,VWS V14.01,2013-01-08 05:31:00,
2013-01-08 00:36:00,29.7,19.7,29.32,NNE,22,5.4,5.4,66,0.00,,SCT240,0.00,VWS V14.01,2013-01-08 05:36:00,
2013-01-08 00:41:00,29.7,19.4,29.32,NNE,22,3.8,3.8,65,0.00,,SCT240,0.00,VWS V14.01,2013-01-08 05:41:00,
2013-01-08 00:46:00,29.5,19.2,29.32,NNE,22,3.1,3.1,65,0.00,,SCT240,0.00,VWS V14.01,2013-01-08 05:46:00,
2013-01-08 00:51:00,29.5,19.5,29.32,NNE,22,2.9,2.9,66,0.00,,SCT240,0.00,VWS V14.01,2013-01-08 05:51:00,
2013-01-08 00:56:00,29.5,19.5,29.32,North,0,4.9,4.9,66,0.00,,SCT240,0.00,VWS V14.01,2013-01-08 05:56:00,
2013-01-08 01:01:00,29.7,19.7,29.32,NNW,338,0.0,0.0,66,0.00,,SCT240,0.00,VWS V14.01,2013-01-08 06:01:00,
2013-01-08 01:06:00,29.7,19.7,29.32,SSW,202,3.1,3.1,66,0.00,,CLR,0.00,VWS V14.01,2013-01-08 06:06:00,
2013-01-08 01:11:00,29.5,19.5,29.35,SE,135,3.8,3.8,66,0.00,,CLR,0.00,VWS V14.01,2013-01-08 06:11:00,
2013-01-08 01:16:00,29.5,19.9,29.35,ENE,68,3.6,3.6,67,0.00,,CLR,0.00,VWS V14.01,2013-01-08 06:16:00,
2013-01-08 01:21:00,29.5,19.9,29.35,NNE,22,2.7,2.7,67,0.00,,CLR,0.00,VWS V14.01,2013-01-08 06:21:00,
2013-01-08 01:26:00,29.7,20.1,29.32,ENE,68,4.3,4.3,67,0.00,,CLR,0.00,VWS V14.01,2013-01-08 06:26:00,
2013-01-08 01:31:00,29.7,20.1,29.32,NE,45,2.5,2.5,67,0.00,,CLR,0.00,VWS V14.01,2013-01-08 06:31:00,
2013-01-08 01:36:00,29.5,20.2,29.32,East,90,2.7,2.7,68,0.00,,CLR,0.00,VWS V14.01,2013-01-08 06:36:00,
2013-01-08 01:41:00,29.5,19.9,29.32,NNE,22,3.1,3.1,67,0.00,,CLR,0.00,VWS V14.01,2013-01-08 06:41:00,
2013-01-08 01:46:00,29.5,19.9,29.32,East,90,0.9,0.9,67,0.00,,CLR,0.00,VWS V14.01,2013-01-08 06:46:00,
2013-01-08 01:51:00,29.5,20.2,29.32,North,0,2.7,2.7,68,0.00,,CLR,0.00,VWS V14.01,2013-01-08 06:51:00,
2013-01-08 01:56:00,29.5,20.6,29.32,North,0,0.9,0.9,69,0.00,,CLR,0.00,VWS V14.01,2013-01-08 06:56:00,
2013-01-08 02:01:00,29.5,20.6,29.35,NE,45,2.5,2.5,69,0.00,,CLR,0.00,VWS V14.01,2013-01-08 07:01:00,
2013-01-08 02:06:00,29.5,20.2,29.35,NNE,22,5.4,5.4,68,0.00,,CLR,0.00,VWS V14.01,2013-01-08 07:06:00,
2013-01-08 02:11:00,29.5,20.2,29.35,North,0,2.2,2.2,68,0.00,,CLR,0.00,VWS V14.01,2013-01-08 07:11:00,
2013-01-08 02:16:00,29.3,20.4,29.35,ESE,112,2.7,2.7,69,0.00,,CLR,0.00,VWS V14.01,2013-01-08 07:16:00,
2013-01-08 02:21:00,29.3,20.4,29.35,NE,45,3.1,3.1,69,0.00,,CLR,0.00,VWS V14.01,2013-01-08 07:21:00,
2013-01-08 02:26:00,29.3,20.4,29.35,NNE,22,2.7,2.7,69,0.00,,CLR,0.00,VWS V14.01,2013-01-08 07:26:00,
2013-01-08 02:31:00,29.3,20.7,29.35,East,90,2.9,2.9,70,0.00,,CLR,0.00,VWS V14.01,2013-01-08 07:31:00,
2013-01-08 02:36:00,29.3,20.4,29.35,NNE,22,2.9,2.9,69,0.00,,CLR,0.00,VWS V14.01,2013-01-08 07:36:00,
2013-01-08 02:41:00,29.1,20.6,29.35,SE,135,1.1,1.1,70,0.00,,CLR,0.00,VWS V14.01,2013-01-08 07:41:00,
2013-01-08 02:46:00,28.9,20.1,29.35,North,0,2.0,2.0,69,0.00,,CLR,0.00,VWS V14.01,2013-01-08 07:46:00,
2013-01-08 02:51:00,28.9,20.4,29.35,NNE,22,3.6,3.6,70,0.00,,CLR,0.00,VWS V14.01,2013-01-08 07:51:00,
2013-01-08 02:56:00,28.9,20.4,29.35,NNE,22,0.0,0.0,70,0.00,,CLR,0.00,VWS V14.01,2013-01-08 07:56:00,
2013-01-08 03:01:00,28.8,20.2,29.35,NE,45,2.0,2.0,70,0.00,,CLR,0.00,VWS V14.01,2013-01-08 08:01:00,
2013-01-08 03:06:00,28.8,20.2,29.35,North,0,0.0,0.0,70,0.00,,CLR,0.00,VWS V14.01,2013-01-08 08:06:00,
2013-01-08 03:11:00,28.6,20.0,29.35,East,90,2.0,2.0,70,0.00,,CLR,0.00,VWS V14.01,2013-01-08 08:11:00,
2013-01-08 03:16:00,28.6,20.0,29.35,ENE,68,0.0,0.0,70,0.00,,CLR,0.00,VWS V14.01,2013-01-08 08:16:00,
2013-01-08 03:21:00,28.4,20.2,29.35,NE,45,2.9,2.9,71,0.00,,CLR,0.00,VWS V14.01,2013-01-08 08:21:00,
2013-01-08 03:26:00,28.4,20.2,29.35,North,0,2.0,2.0,71,0.00,,CLR,0.00,VWS V14.01,2013-01-08 08:26:00,
2013-01-08 03:31:00,28.4,20.2,29.35,East,90,0.0,0.0,71,0.00,,CLR,0.00,VWS V14.01,2013-01-08 08:31:00,
2013-01-08 03:36:00,28.2,20.0,29.35,NE,45,3.8,3.8,71,0.00,,CLR,0.00,VWS V14.01,2013-01-08 08:36:00,
2013-01-08 03:41:00,28.2,20.4,29.35,North,0,2.9,2.9,72,0.00,,CLR,0.00,VWS V14.01,2013-01-08 08:41:00,
2013-01-08 03:46:00,28.4,20.5,29.35,NE,45,1.1,1.1,72,0.00,,CLR,0.00,VWS V14.01,2013-01-08 08:46:00,
2013-01-08 03:51:00,28.2,20.4,29.35,ENE,68,2.2,2.2,72,0.00,,CLR,0.00,VWS V14.01,2013-01-08 08:51:00,
2013-01-08 03:56:00,28.2,20.4,29.35,NE,45,0.0,0.0,72,0.00,,CLR,0.00,VWS V14.01,2013-01-08 08:56:00,
2013-01-08 04:01:00,28.2,20.7,29.35,North,0,2.5,2.5,73,0.00,,CLR,0.00,VWS V14.01,2013-01-08 09:01:00,
2013-01-08 04:06:00,28.2,20.7,29.35,North,0,3.1,3.1,73,0.00,,CLR,0.00,VWS V14.01,2013-01-08 09:06:00,
2013-01-08 04:11:00,28.2,20.7,29.35,North,0,2.9,2.9,73,0.00,,CLR,0.00,VWS V14.01,2013-01-08 09:11:00,
2013-01-08 04:16:00,28.2,20.7,29.35,North,0,2.0,2.0,73,0.00,,CLR,0.00,VWS V14.01,2013-01-08 09:16:00,
2013-01-08 04:21:00,28.2,21.0,29.35,NE,45,3.4,3.4,74,0.00,,CLR,0.00,VWS V14.01,2013-01-08 09:21:00,
2013-01-08 04:26:00,28.2,20.7,29.35,North,0,2.0,2.0,73,0.00,,CLR,0.00,VWS V14.01,2013-01-08 09:26:00,
2013-01-08 04:31:00,28.0,20.5,29.35,NNE,22,2.0,2.0,73,0.00,,CLR,0.00,VWS V14.01,2013-01-08 09:31:00,
2013-01-08 04:36:00,28.0,20.8,29.35,NNE,22,3.1,3.1,74,0.00,,CLR,0.00,VWS V14.01,2013-01-08 09:36:00,
2013-01-08 04:41:00,28.0,20.8,29.35,NE,45,2.5,2.5,74,0.00,,CLR,0.00,VWS V14.01,2013-01-08 09:41:00,
2013-01-08 04:46:00,27.9,20.7,29.35,North,0,3.4,3.4,74,0.00,,CLR,0.00,VWS V14.01,2013-01-08 09:46:00,
2013-01-08 04:51:00,27.9,20.7,29.35,NNE,22,2.7,2.7,74,0.00,,CLR,0.00,VWS V14.01,2013-01-08 09:51:00,
2013-01-08 04:56:00,27.9,20.7,29.35,NNW,338,2.9,2.9,74,0.00,,CLR,0.00,VWS V14.01,2013-01-08 09:56:00,
2013-01-08 05:01:00,27.9,20.7,29.35,NNW,338,2.7,2.7,74,0.00,,CLR,0.00,VWS V14.01,2013-01-08 10:01:00,
2013-01-08 05:06:00,27.9,20.7,29.35,NNE,22,7.4,7.4,74,0.00,,CLR,0.00,VWS V14.01,2013-01-08 10:06:00,
2013-01-08 05:11:00,27.9,20.7,29.35,NNW,338,0.0,0.0,74,0.00,,CLR,0.00,VWS V14.01,2013-01-08 10:11:00,
2013-01-08 05:16:00,27.9,20.7,29.35,North,0,1.6,1.6,74,0.00,,CLR,0.00,VWS V14.01,2013-01-08 10:16:00,
2013-01-08 05:21:00,27.9,20.7,29.35,NE,45,3.1,3.1,74,0.00,,CLR,0.00,VWS V14.01,2013-01-08 10:21:00,
2013-01-08 05:26:00,27.9,20.7,29.35,NNE,22,1.3,1.3,74,0.00,,CLR,0.00,VWS V14.01,2013-01-08 10:26:00,
2013-01-08 05:31:00,27.9,20.7,29.35,NE,45,1.1,1.1,74,0.00,,CLR,0.00,VWS V14.01,2013-01-08 10:31:00,
2013-01-08 05:36:00,27.9,20.7,29.35,NNW,338,2.2,2.2,74,0.00,,CLR,0.00,VWS V14.01,2013-01-08 10:36:00,
2013-01-08 05:41:00,27.9,20.7,29.35,NNE,22,2.2,2.2,74,0.00,,CLR,0.00,VWS V14.01,2013-01-08 10:41:00,
2013-01-08 05:46:00,27.9,20.7,29.35,NNE,22,3.6,3.6,74,0.00,,CLR,0.00,VWS V14.01,2013-01-08 10:46:00,
2013-01-08 05:51:00,27.9,20.7,29.35,North,0,2.5,2.5,74,0.00,,CLR,0.00,VWS V14.01,2013-01-08 10:51:00,
2013-01-08 05:56:00,28.0,21.1,29.35,NNE,22,4.7,4.7,75,0.00,,CLR,0.00,VWS V14.01,2013-01-08 10:56:00,
2013-01-08 06:01:00,28.0,21.1,29.35,NNE,22,2.7,2.7,75,0.00,,CLR,0.00,VWS V14.01,2013-01-08 11:01:00,
2013-01-08 06:06:00,28.0,20.8,29.35,East,90,2.5,2.5,74,0.00,,FEW240,0.00,VWS V14.01,2013-01-08 11:06:00,
2013-01-08 06:11:00,28.0,20.8,29.35,NNE,22,4.7,4.7,74,0.00,,FEW240,0.00,VWS V14.01,2013-01-08 11:11:00,
2013-01-08 06:16:00,28.0,21.1,29.35,NNE,22,7.6,7.6,75,0.00,,FEW240,0.00,VWS V14.01,2013-01-08 11:16:00,
2013-01-08 06:21:00,28.0,21.1,29.35,NNE,22,0.0,0.0,75,0.00,,FEW240,0.00,VWS V14.01,2013-01-08 11:21:00,
2013-01-08 06:26:00,28.2,21.0,29.35,North,0,1.6,1.6,74,0.00,,FEW240,0.00,VWS V14.01,2013-01-08 11:26:00,
2013-01-08 06:31:00,28.2,21.0,29.35,North,0,2.7,2.7,74,0.00,,FEW240,0.00,VWS V14.01,2013-01-08 11:31:00,
2013-01-08 06:36:00,28.2,21.0,29.35,NNW,338,1.1,1.1,74,0.00,,FEW240,0.00,VWS V14.01,2013-01-08 11:36:00,
2013-01-08 06:41:00,28.4,21.5,29.35,NNW,338,1.3,1.3,75,0.00,,FEW240,0.00,VWS V14.01,2013-01-08 11:41:00,
2013-01-08 06:46:00,28.4,21.2,29.35,NNE,22,3.1,3.1,74,0.00,,FEW240,0.00,VWS V14.01,2013-01-08 11:46:00,
2013-01-08 06:51:00,28.4,21.2,29.35,North,0,4.0,4.0,74,0.00,,FEW240,0.00,VWS V14.01,2013-01-08 11:51:00,
2013-01-08 06:56:00,28.2,21.0,29.35,NNW,338,3.4,3.4,74,0.00,,FEW240,0.00,VWS V14.01,2013-01-08 11:56:00,
2013-01-08 07:01:00,28.2,21.3,29.35,NNW,338,2.9,2.9,75,0.00,,FEW240,0.00,VWS V14.01,2013-01-08 12:01:00,
2013-01-08 07:06:00,28.2,21.3,29.35,NW,315,2.7,2.7,75,0.00,,,0.00,VWS V14.01,2013-01-08 12:06:00,
2013-01-08 07:11:00,28.2,21.3,29.35,NNW,338,1.6,1.6,75,0.00,,,0.00,VWS V14.01,2013-01-08 12:11:00,
2013-01-08 07:16:00,28.2,21.3,29.38,North,0,1.6,1.6,75,0.00,,,0.00,VWS V14.01,2013-01-08 12:16:00,
2013-01-08 07:21:00,28.2,21.3,29.38,NNW,338,2.7,2.7,75,0.00,,,0.00,VWS V14.01,2013-01-08 12:21:00,
2013-01-08 07:26:00,28.0,21.1,29.38,WNW,292,2.5,2.5,75,0.00,,,0.00,VWS V14.01,2013-01-08 12:26:00,
2013-01-08 07:31:00,28.0,21.1,29.38,NE,45,4.0,4.0,75,0.00,,,0.00,VWS V14.01,2013-01-08 12:31:00,
2013-01-08 07:36:00,27.9,21.0,29.38,NW,315,2.7,2.7,75,0.00,,,0.00,VWS V14.01,2013-01-08 12:36:00,
2013-01-08 07:41:00,27.9,21.0,29.38,WSW,248,0.0,0.0,75,0.00,,,0.00,VWS V14.01,2013-01-08 12:41:00,
2013-01-08 07:46:00,27.9,21.0,29.38,NNE,22,1.6,1.6,75,0.00,,,0.00,VWS V14.01,2013-01-08 12:46:00,
2013-01-08 07:51:00,27.7,20.8,29.38,NNE,22,1.3,1.3,75,0.00,,,0.00,VWS V14.01,2013-01-08 12:51:00,
2013-01-08 07:56:00,27.9,21.0,29.38,NW,315,4.0,4.0,75,0.00,,,0.00,VWS V14.01,2013-01-08 12:56:00,
2013-01-08 08:01:00,27.9,21.0,29.38,WNW,292,1.1,1.1,75,0.00,,,0.00,VWS V14.01,2013-01-08 13:01:00,
2013-01-08 08:06:00,27.9,21.0,29.38,NNW,338,3.8,3.8,75,0.00,,,0.00,VWS V14.01,2013-01-08 13:06:00,
2013-01-08 08:11:00,27.9,21.0,29.38,NNE,22,1.6,1.6,75,0.00,,,0.00,VWS V14.01,2013-01-08 13:11:00,
2013-01-08 08:16:00,27.9,21.3,29.38,NNE,22,0.0,0.0,76,0.00,,,0.00,VWS V14.01,2013-01-08 13:16:00,
2013-01-08 08:21:00,28.0,21.1,29.38,NNE,22,3.1,3.1,75,0.00,,,0.00,VWS V14.01,2013-01-08 13:21:00,
2013-01-08 08:26:00,28.0,21.1,29.38,North,0,2.2,2.2,75,0.00,,,0.00,VWS V14.01,2013-01-08 13:26:00,
2013-01-08 08:31:00,28.0,21.5,29.38,NNW,338,2.7,2.7,76,0.00,,,0.00,VWS V14.01,2013-01-08 13:31:00,
2013-01-08 08:36:00,28.2,21.6,29.38,NNE,22,0.0,0.0,76,0.00,,,0.00,VWS V14.01,2013-01-08 13:36:00,
2013-01-08 08:41:00,28.2,21.6,29.38,North,0,2.0,2.0,76,0.00,,,0.00,VWS V14.01,2013-01-08 13:41:00,
2013-01-08 08:46:00,28.2,21.3,29.41,NNE,22,2.9,2.9,75,0.00,,,0.00,VWS V14.01,2013-01-08 13:46:00,
2013-01-08 08:51:00,28.4,21.8,29.41,North,0,2.7,2.7,76,0.00,,,0.00,VWS V14.01,2013-01-08 13:51:00,
2013-01-08 08:56:00,28.6,21.7,29.41,WNW,292,0.0,0.0,75,0.00,,,0.00,VWS V14.01,2013-01-08 13:56:00,
2013-01-08 09:01:00,28.6,21.7,29.41,West,270,0.0,0.0,75,0.00,,,0.00,VWS V14.01,2013-01-08 14:01:00,
2013-01-08 09:06:00,28.6,21.7,29.41,WNW,292,0.0,0.0,75,0.00,,,0.00,VWS V14.01,2013-01-08 14:06:00,
2013-01-08 09:11:00,28.8,21.9,29.41,NW,315,1.3,1.3,75,0.00,,,0.00,VWS V14.01,2013-01-08 14:11:00,
2013-01-08 09:16:00,28.9,22.0,29.41,NNW,338,1.6,1.6,75,0.00,,,0.00,VWS V14.01,2013-01-08 14:16:00,
2013-01-08 09:21:00,29.1,22.2,29.41,NNW,338,2.7,2.7,75,0.00,,,0.00,VWS V14.01,2013-01-08 14:21:00,
2013-01-08 09:26:00,29.1,22.2,29.41,NNW,338,4.3,4.3,75,0.00,,,0.00,VWS V14.01,2013-01-08 14:26:00,
2013-01-08 09:31:00,29.1,21.9,29.41,NNW,338,3.1,3.1,74,0.00,,,0.00,VWS V14.01,2013-01-08 14:31:00,
2013-01-08 09:36:00,29.3,22.1,29.41,NNW,338,0.0,0.0,74,0.00,,,0.00,VWS V14.01,2013-01-08 14:36:00,
2013-01-08 09:41:00,29.5,22.2,29.41,NNW,338,0.0,0.0,74,0.00,,,0.00,VWS V14.01,2013-01-08 14:41:00,
2013-01-08 09:46:00,29.5,22.2,29.41,NNW,338,3.1,3.1,74,0.00,,,0.00,VWS V14.01,2013-01-08 14:46:00,
2013-01-08 09:51:00,29.5,22.2,29.41,NNE,22,3.1,3.1,74,0.00,,,0.00,VWS V14.01,2013-01-08 14:51:00,
2013-01-08 09:56:00,29.7,22.4,29.41,NNE,22,1.6,1.6,74,0.00,,,0.00,VWS V14.01,2013-01-08 14:56:00,
2013-01-08 10:01:00,29.8,22.6,29.41,NNW,338,0.0,0.0,74,0.00,,,0.00,VWS V14.01,2013-01-08 15:01:00,
2013-01-08 10:06:00,30.0,22.4,29.41,NW,315,2.9,2.9,73,0.00,,,0.00,VWS V14.01,2013-01-08 15:06:00,
2013-01-08 10:11:00,30.2,22.6,29.41,North,0,2.7,2.7,73,0.00,,,0.00,VWS V14.01,2013-01-08 15:11:00,
2013-01-08 10:16:00,30.4,22.8,29.41,NNW,338,2.5,2.5,73,0.00,,,0.00,VWS V14.01,2013-01-08 15:16:00,
2013-01-08 10:21:00,30.6,23.0,29.41,NNW,338,2.9,2.9,73,0.00,,,0.00,VWS V14.01,2013-01-08 15:21:00,
2013-01-08 10:26:00,30.7,22.8,29.41,NNW,338,2.0,2.0,72,0.00,,,0.00,VWS V14.01,2013-01-08 15:26:00,
2013-01-08 10:31:00,31.1,23.1,29.41,NNW,338,4.0,4.0,72,0.00,,,0.00,VWS V14.01,2013-01-08 15:31:00,
2013-01-08 10:36:00,31.5,23.8,29.41,NNE,22,0.9,0.9,73,0.00,,,0.00,VWS V14.01,2013-01-08 15:36:00,
2013-01-08 10:41:00,31.8,23.8,29.41,NNE,22,3.6,3.6,72,0.00,,,0.00,VWS V14.01,2013-01-08 15:41:00,
2013-01-08 10:46:00,32.2,24.2,29.41,North,0,3.6,3.6,72,0.00,,,0.00,VWS V14.01,2013-01-08 15:46:00,
2013-01-08 10:51:00,32.5,24.2,29.41,NW,315,3.6,3.6,71,0.00,,,0.00,VWS V14.01,2013-01-08 15:51:00,
2013-01-08 10:56:00,32.7,24.4,29.41,North,0,2.9,2.9,71,0.00,,,0.00,VWS V14.01,2013-01-08 15:56:00,
2013-01-08 11:01:00,33.3,24.5,29.41,NNE,22,4.3,4.3,70,0.00,,,0.00,VWS V14.01,2013-01-08 16:01:00,
2013-01-08 11:06:00,33.4,24.4,29.41,NNW,338,2.0,2.0,69,0.00,,,0.00,VWS V14.01,2013-01-08 16:06:00,
2013-01-08 11:11:00,33.8,25.1,29.41,NNE,22,0.0,0.0,70,0.00,,,0.00,VWS V14.01,2013-01-08 16:11:00,
2013-01-08 11:16:00,34.0,24.5,29.41,NNE,22,5.6,5.6,68,0.00,,,0.00,VWS V14.01,2013-01-08 16:16:00,
2013-01-08 11:21:00,34.3,24.9,29.41,NNE,22,2.9,2.9,68,0.00,,,0.00,VWS V14.01,2013-01-08 16:21:00,
2013-01-08 11:26:00,34.5,24.7,29.41,NE,45,4.0,4.0,67,0.00,,,0.00,VWS V14.01,2013-01-08 16:26:00,
2013-01-08 11:31:00,34.9,25.0,29.41,North,0,6.3,6.3,67,0.00,,,0.00,VWS V14.01,2013-01-08 16:31:00,
2013-01-08 11:36:00,34.9,24.7,29.41,NNW,338,3.4,3.4,66,0.00,,,0.00,VWS V14.01,2013-01-08 16:36:00,
2013-01-08 11:41:00,34.7,24.5,29.41,NE,45,3.6,3.6,66,0.00,,,0.00,VWS V14.01,2013-01-08 16:41:00,
2013-01-08 11:46:00,35.1,24.9,29.41,NNW,338,3.6,3.6,66,0.00,,,0.00,VWS V14.01,2013-01-08 16:46:00,
2013-01-08 11:51:00,35.1,24.5,29.41,NNW,338,2.5,2.5,65,0.00,,,0.00,VWS V14.01,2013-01-08 16:51:00,
2013-01-08 11:56:00,35.4,25.2,29.41,NNE,22,0.0,0.0,66,0.00,,,0.00,VWS V14.01,2013-01-08 16:56:00,
2013-01-08 12:01:00,35.6,25.7,29.41,ENE,68,2.7,2.7,67,0.00,,,0.00,VWS V14.01,2013-01-08 17:01:00,
2013-01-08 12:06:00,35.6,25.0,29.41,NNE,22,3.1,3.1,65,0.00,,,0.00,VWS V14.01,2013-01-08 17:06:00,
2013-01-08 12:11:00,35.8,25.5,29.41,NNE,22,1.3,1.3,66,0.00,,,0.00,VWS V14.01,2013-01-08 17:11:00,
2013-01-08 12:16:00,36.1,25.1,29.38,NNW,338,5.6,5.6,64,0.00,,,0.00,VWS V14.01,2013-01-08 17:16:00,
2013-01-08 12:21:00,36.3,25.0,29.38,North,0,3.4,3.4,63,0.00,,,0.00,VWS V14.01,2013-01-08 17:21:00,
2013-01-08 12:26:00,36.5,25.1,29.38,NNE,22,4.0,4.0,63,0.00,,,0.00,VWS V14.01,2013-01-08 17:26:00,
2013-01-08 12:31:00,36.5,25.1,29.38,NE,45,2.5,2.5,63,0.00,,,0.00,VWS V14.01,2013-01-08 17:31:00,
2013-01-08 12:36:00,36.7,24.9,29.38,NNW,338,3.8,3.8,62,0.00,,,0.00,VWS V14.01,2013-01-08 17:36:00,
2013-01-08 12:41:00,36.7,25.3,29.38,North,0,4.0,4.0,63,0.00,,,0.00,VWS V14.01,2013-01-08 17:41:00,
2013-01-08 12:46:00,36.5,24.7,29.38,NNW,338,4.0,4.0,62,0.00,,,0.00,VWS V14.01,2013-01-08 17:46:00,
2013-01-08 12:51:00,36.3,24.6,29.38,NNE,22,0.0,0.0,62,0.00,,,0.00,VWS V14.01,2013-01-08 17:51:00,
2013-01-08 12:56:00,36.1,24.0,29.38,North,0,4.9,4.9,61,0.00,,,0.00,VWS V14.01,2013-01-08 17:56:00,
2013-01-08 13:01:00,36.1,24.4,29.38,NNW,338,3.8,3.8,62,0.00,,,0.00,VWS V14.01,2013-01-08 18:01:00,
2013-01-08 13:05:00,36.1,24.4,29.38,NW,315,4.9,4.9,62,0.00,,,0.00,VWS V14.01,2013-01-08 18:05:00,
2013-01-08 13:10:00,36.1,24.0,29.38,NNW,338,4.0,4.0,61,0.00,,,0.00,VWS V14.01,2013-01-08 18:10:00,
2013-01-08 13:15:00,36.1,24.0,29.38,NNW,338,4.3,4.3,61,0.00,,,0.00,VWS V14.01,2013-01-08 18:15:00,
2013-01-08 13:20:00,36.3,24.2,29.38,NNW,338,2.9,2.9,61,0.00,,,0.00,VWS V14.01,2013-01-08 18:20:00,
2013-01-08 13:25:00,36.5,24.7,29.38,NNW,338,4.7,4.7,62,0.00,,,0.00,VWS V14.01,2013-01-08 18:25:00,
2013-01-08 13:30:00,36.7,24.9,29.38,NNE,22,4.0,4.0,62,0.00,,,0.00,VWS V14.01,2013-01-08 18:30:00,
2013-01-08 13:35:00,36.9,24.7,29.38,NNE,22,5.4,5.4,61,0.00,,,0.00,VWS V14.01,2013-01-08 18:35:00,
2013-01-08 13:40:00,36.9,24.3,29.38,North,0,6.0,6.0,60,0.00,,,0.00,VWS V14.01,2013-01-08 18:40:00,
2013-01-08 13:45:00,36.9,23.9,29.38,NNW,338,6.3,6.3,59,0.00,,,0.00,VWS V14.01,2013-01-08 18:45:00,
2013-01-08 13:51:00,36.9,23.9,29.38,NNE,22,4.0,4.0,59,0.00,,,0.00,VWS V14.01,2013-01-08 18:51:00,
2013-01-08 13:56:00,36.9,23.9,29.38,NNE,22,2.9,2.9,59,0.00,,,0.00,VWS V14.01,2013-01-08 18:56:00,
2013-01-08 14:01:00,37.0,24.1,29.38,NNE,22,2.5,2.5,59,0.00,,,0.00,VWS V14.01,2013-01-08 19:01:00,
2013-01-08 14:06:00,37.2,24.2,29.38,NNE,22,4.0,4.0,59,0.00,,,0.00,VWS V14.01,2013-01-08 19:06:00,
2013-01-08 14:11:00,37.0,23.2,29.38,North,0,2.7,2.7,57,0.00,,,0.00,VWS V14.01,2013-01-08 19:11:00,
2013-01-08 14:15:00,37.0,23.6,29.38,NNW,338,6.0,6.0,58,0.00,,,0.00,VWS V14.01,2013-01-08 19:15:00,
2013-01-08 14:21:00,37.4,23.6,29.38,NNE,22,2.9,2.9,57,0.00,,,0.00,VWS V14.01,2013-01-08 19:21:00,
2013-01-08 14:25:00,37.4,23.6,29.38,North,0,2.5,2.5,57,0.00,,,0.00,VWS V14.01,2013-01-08 19:25:00,
2013-01-08 14:30:00,37.4,23.6,29.38,NNW,338,2.9,2.9,57,0.00,,,0.00,VWS V14.01,2013-01-08 19:30:00,
2013-01-08 14:35:00,37.2,23.0,29.38,NNE,22,5.8,5.8,56,0.00,,,0.00,VWS V14.01,2013-01-08 19:35:00,
2013-01-08 14:40:00,37.0,22.8,29.38,WNW,292,4.7,4.7,56,0.00,,,0.00,VWS V14.01,2013-01-08 19:40:00,
2013-01-08 14:45:00,37.0,22.8,29.38,North,0,3.8,3.8,56,0.00,,,0.00,VWS V14.01,2013-01-08 19:45:00,
2013-01-08 14:50:00,37.0,22.8,29.38,NNW,338,5.4,5.4,56,0.00,,,0.00,VWS V14.01,2013-01-08 19:50:00,
2013-01-08 14:55:00,37.0,23.2,29.38,North,0,3.4,3.4,57,0.00,,,0.00,VWS V14.01,2013-01-08 19:55:00,
2013-01-08 15:00:00,37.0,22.8,29.38,North,0,3.6,3.6,56,0.00,,,0.00,VWS V14.01,2013-01-08 20:00:00,
2013-01-08 15:05:00,37.0,22.8,29.38,NNE,22,4.3,4.3,56,0.00,,,0.00,VWS V14.01,2013-01-08 20:05:00,
2013-01-08 15:10:00,36.9,22.6,29.38,NNW,338,2.5,2.5,56,0.00,,,0.00,VWS V14.01,2013-01-08 20:10:00,
2013-01-08 15:15:00,36.9,22.2,29.38,NNW,338,4.3,4.3,55,0.00,,,0.00,VWS V14.01,2013-01-08 20:15:00,
2013-01-08 15:20:00,36.7,22.5,29.38,NNW,338,4.0,4.0,56,0.00,,,0.00,VWS V14.01,2013-01-08 20:20:00,
2013-01-08 15:25:00,36.7,22.5,29.38,WNW,292,2.0,2.0,56,0.00,,,0.00,VWS V14.01,2013-01-08 20:25:00,
2013-01-08 15:30:00,36.9,23.1,29.38,WNW,292,2.5,2.5,57,0.00,,,0.00,VWS V14.01,2013-01-08 20:30:00,
2013-01-08 15:35:00,36.9,23.1,29.38,NW,315,1.3,1.3,57,0.00,,,0.00,VWS V14.01,2013-01-08 20:35:00,
2013-01-08 15:40:00,36.9,23.1,29.38,NNW,338,2.5,2.5,57,0.00,,,0.00,VWS V14.01,2013-01-08 20:40:00,
2013-01-08 15:45:00,36.9,23.1,29.38,North,0,0.0,0.0,57,0.00,,,0.00,VWS V14.01,2013-01-08 20:45:00,
2013-01-08 15:50:00,37.0,22.8,29.38,NNW,338,6.5,6.5,56,0.00,,,0.00,VWS V14.01,2013-01-08 20:50:00,
2013-01-08 15:55:00,37.0,22.8,29.38,WNW,292,4.7,4.7,56,0.00,,,0.00,VWS V14.01,2013-01-08 20:55:00,
2013-01-08 16:00:00,37.0,23.2,29.38,NNW,338,2.5,2.5,57,0.00,,,0.00,VWS V14.01,2013-01-08 21:00:00,
2013-01-08 16:05:00,37.0,23.2,29.38,North,0,3.4,3.4,57,0.00,,,0.00,VWS V14.01,2013-01-08 21:05:00,
2013-01-08 16:10:00,37.0,23.2,29.38,North,0,2.5,2.5,57,0.00,,,0.00,VWS V14.01,2013-01-08 21:10:00,
2013-01-08 16:15:00,37.0,23.2,29.38,NNW,338,4.3,4.3,57,0.00,,,0.00,VWS V14.01,2013-01-08 21:15:00,
2013-01-08 16:20:00,37.0,23.2,29.38,NNW,338,3.6,3.6,57,0.00,,,0.00,VWS V14.01,2013-01-08 21:20:00,
2013-01-08 16:25:00,37.0,23.2,29.38,North,0,3.4,3.4,57,0.00,,,0.00,VWS V14.01,2013-01-08 21:25:00,
2013-01-08 16:30:00,37.0,23.2,29.38,North,0,3.6,3.6,57,0.00,,,0.00,VWS V14.01,2013-01-08 21:30:00,
2013-01-08 16:35:00,37.0,23.2,29.38,NNW,338,4.3,4.3,57,0.00,,,0.00,VWS V14.01,2013-01-08 21:35:00,
2013-01-08 16:40:00,36.9,23.1,29.38,North,0,3.8,3.8,57,0.00,,,0.00,VWS V14.01,2013-01-08 21:40:00,
2013-01-08 16:45:00,36.9,23.1,29.38,NNW,338,2.7,2.7,57,0.00,,,0.00,VWS V14.01,2013-01-08 21:45:00,
2013-01-08 16:50:00,36.9,23.5,29.38,NNW,338,2.2,2.2,58,0.00,,,0.00,VWS V14.01,2013-01-08 21:50:00,
2013-01-08 16:55:00,36.7,23.3,29.38,NNE,22,3.4,3.4,58,0.00,,,0.00,VWS V14.01,2013-01-08 21:55:00,
2013-01-08 17:00:00,36.7,23.3,29.38,North,0,4.0,4.0,58,0.00,,,0.00,VWS V14.01,2013-01-08 22:00:00,
2013-01-08 17:05:00,36.7,23.3,29.38,North,0,2.9,2.9,58,0.00,,,0.00,VWS V14.01,2013-01-08 22:05:00,
2013-01-08 17:10:00,36.7,23.3,29.38,NNW,338,3.8,3.8,58,0.00,,,0.00,VWS V14.01,2013-01-08 22:10:00,
2013-01-08 17:15:00,36.5,23.5,29.38,NNW,338,3.8,3.8,59,0.00,,,0.00,VWS V14.01,2013-01-08 22:15:00,
2013-01-08 17:20:00,36.3,23.0,29.38,NNW,338,4.0,4.0,58,0.00,,,0.00,VWS V14.01,2013-01-08 22:20:00,
2013-01-08 17:25:00,36.3,23.4,29.38,North,0,3.8,3.8,59,0.00,,,0.00,VWS V14.01,2013-01-08 22:25:00,
2013-01-08 17:30:00,36.3,23.4,29.38,NNW,338,3.6,3.6,59,0.00,,,0.00,VWS V14.01,2013-01-08 22:30:00,
2013-01-08 17:35:00,36.1,23.2,29.38,North,0,2.5,2.5,59,0.00,,,0.00,VWS V14.01,2013-01-08 22:35:00,
2013-01-08 17:40:00,36.1,23.6,29.38,WNW,292,1.6,1.6,60,0.00,,,0.00,VWS V14.01,2013-01-08 22:40:00,
2013-01-08 17:45:00,36.0,23.0,29.38,NNW,338,3.8,3.8,59,0.00,,,0.00,VWS V14.01,2013-01-08 22:45:00,
2013-01-08 17:50:00,35.8,22.9,29.38,NNW,338,3.4,3.4,59,0.00,,,0.00,VWS V14.01,2013-01-08 22:50:00,
2013-01-08 17:55:00,35.8,22.9,29.38,North,0,3.1,3.1,59,0.00,,,0.00,VWS V14.01,2013-01-08 22:55:00,
2013-01-08 18:00:00,35.8,22.9,29.35,NNW,338,7.2,7.2,59,0.00,,,0.00,VWS V14.01,2013-01-08 23:00:00,
2013-01-08 18:05:00,35.8,22.9,29.35,North,0,3.4,3.4,59,0.00,,BKN200,0.00,VWS V14.01,2013-01-08 23:05:00,
2013-01-08 18:10:00,35.8,23.3,29.35,NNW,338,2.2,2.2,60,0.00,,BKN200,0.00,VWS V14.01,2013-01-08 23:10:00,
2013-01-08 18:15:00,35.6,23.1,29.35,NNW,338,2.7,2.7,60,0.00,,BKN200,0.00,VWS V14.01,2013-01-08 23:15:00,
2013-01-08 18:20:00,35.6,23.1,29.35,NNW,338,4.9,4.9,60,0.00,,BKN200,0.00,VWS V14.01,2013-01-08 23:20:00,
2013-01-08 18:25:00,35.6,23.1,29.35,NNW,338,3.6,3.6,60,0.00,,BKN200,0.00,VWS V14.01,2013-01-08 23:25:00,
2013-01-08 18:30:00,35.6,23.1,29.35,NNW,338,3.4,3.4,60,0.00,,BKN200,0.00,VWS V14.01,2013-01-08 23:30:00,
2013-01-08 18:35:00,35.4,23.3,29.35,WNW,292,8.1,8.1,61,0.00,,BKN200,0.00,VWS V14.01,2013-01-08 23:35:00,
2013-01-08 18:40:00,35.4,22.9,29.35,NNW,338,3.1,3.1,60,0.00,,BKN200,0.00,VWS V14.01,2013-01-08 23:40:00,
2013-01-08 18:45:00,35.4,22.9,29.35,NNW,338,5.6,5.6,60,0.00,,BKN200,0.00,VWS V14.01,2013-01-08 23:45:00,
2013-01-08 18:50:00,35.2,22.8,29.35,NNW,338,5.6,5.6,60,0.00,,BKN200,0.00,VWS V14.01,2013-01-08 23:50:00,
2013-01-08 18:55:00,35.2,22.8,29.35,North,0,4.9,4.9,60,0.00,,BKN200,0.00,VWS V14.01,2013-01-08 23:55:00,
2013-01-08 19:00:00,35.1,23.0,29.35,North,0,4.0,4.0,61,0.00,,BKN200,0.00,VWS V14.01,2013-01-09 00:00:00,
2013-01-08 19:05:00,34.9,22.8,29.35,NNW,338,3.6,3.6,61,0.00,,BKN200,0.00,VWS V14.01,2013-01-09 00:05:00,
2013-01-08 19:10:00,34.9,22.8,29.35,NW,315,5.6,5.6,61,0.00,,BKN200,0.00,VWS V14.01,2013-01-09 00:10:00,
2013-01-08 19:15:00,34.7,22.6,29.35,NNW,338,6.0,6.0,61,0.00,,BKN200,0.00,VWS V14.01,2013-01-09 00:15:00,
2013-01-08 19:20:00,34.7,22.6,29.35,NNW,338,4.0,4.0,61,0.00,,BKN200,0.00,VWS V14.01,2013-01-09 00:20:00,
2013-01-08 19:25:00,34.5,22.9,29.35,NW,315,2.9,2.9,62,0.00,,BKN200,0.00,VWS V14.01,2013-01-09 00:25:00,
2013-01-08 19:30:00,34.5,22.9,29.35,NNW,338,3.6,3.6,62,0.00,,BKN200,0.00,VWS V14.01,2013-01-09 00:30:00,
2013-01-08 19:35:00,34.5,22.9,29.35,NNW,338,3.6,3.6,62,0.00,,BKN200,0.00,VWS V14.01,2013-01-09 00:35:00,
2013-01-08 19:40:00,34.3,22.7,29.35,WNW,292,2.5,2.5,62,0.00,,BKN200,0.00,VWS V14.01,2013-01-09 00:40:00,
2013-01-08 19:45:00,34.2,22.5,29.35,NNW,338,3.6,3.6,62,0.00,,BKN200,0.00,VWS V14.01,2013-01-09 00:45:00,
2013-01-08 19:50:00,34.0,22.4,29.35,NNW,338,4.0,4.0,62,0.00,,BKN200,0.00,VWS V14.01,2013-01-09 00:50:00,
2013-01-08 19:55:00,34.0,22.7,29.35,NNW,338,6.0,6.0,63,0.00,,BKN200,0.00,VWS V14.01,2013-01-09 00:55:00,
2013-01-08 20:00:00,33.8,22.5,29.35,WNW,292,4.3,4.3,63,0.00,,BKN200,0.00,VWS V14.01,2013-01-09 01:00:00,
2013-01-08 20:05:00,33.8,22.5,29.35,NNW,338,5.6,5.6,63,0.00,,SCT200,0.00,VWS V14.01,2013-01-09 01:05:00,
2013-01-08 20:10:00,33.6,22.4,29.35,WNW,292,4.0,4.0,63,0.00,,SCT200,0.00,VWS V14.01,2013-01-09 01:10:00,
2013-01-08 20:15:00,33.6,22.8,29.35,NNW,338,3.6,3.6,64,0.00,,SCT200,0.00,VWS V14.01,2013-01-09 01:15:00,
2013-01-08 20:20:00,33.6,22.8,29.35,NNW,338,4.0,4.0,64,0.00,,SCT200,0.00,VWS V14.01,2013-01-09 01:20:00,
2013-01-08 20:25:00,33.4,22.6,29.35,NNW,338,6.0,6.0,64,0.00,,SCT200,0.00,VWS V14.01,2013-01-09 01:25:00,
2013-01-08 20:30:00,33.4,22.6,29.35,North,0,6.3,6.3,64,0.00,,SCT200,0.00,VWS V14.01,2013-01-09 01:30:00,
2013-01-08 20:35:00,33.4,22.6,29.35,NNE,22,6.7,6.7,64,0.00,,SCT200,0.00,VWS V14.01,2013-01-09 01:35:00,
2013-01-08 20:40:00,33.4,22.6,29.35,NNE,22,5.4,5.4,64,0.00,,SCT200,0.00,VWS V14.01,2013-01-09 01:40:00,
2013-01-08 20:45:00,33.4,22.6,29.35,NW,315,3.8,3.8,64,0.00,,SCT200,0.00,VWS V14.01,2013-01-09 01:45:00,
2013-01-08 20:50:00,33.3,22.4,29.35,North,0,3.4,3.4,64,0.00,,SCT200,0.00,VWS V14.01,2013-01-09 01:50:00,
2013-01-08 20:55:00,33.3,22.4,29.35,North,0,7.6,7.6,64,0.00,,SCT200,0.00,VWS V14.01,2013-01-09 01:55:00,
2013-01-08 21:00:00,33.3,22.4,29.35,North,0,6.0,6.0,64,0.00,,SCT200,0.00,VWS V14.01,2013-01-09 02:00:00,
2013-01-08 21:05:00,33.4,23.0,29.35,NNW,338,4.0,4.0,65,0.00,,CLR,0.00,VWS V14.01,2013-01-09 02:05:00,
2013-01-08 21:10:00,33.4,22.6,29.35,NNW,338,5.8,5.8,64,0.00,,CLR,0.00,VWS V14.01,2013-01-09 02:10:00,
2013-01-08 21:15:00,33.3,22.4,29.35,NNE,22,6.3,6.3,64,0.00,,CLR,0.00,VWS V14.01,2013-01-09 02:15:00,
2013-01-08 21:20:00,33.3,22.4,29.35,NNE,22,6.5,6.5,64,0.00,,CLR,0.00,VWS V14.01,2013-01-09 02:20:00,
2013-01-08 21:25:00,33.3,22.8,29.35,NNE,22,5.4,5.4,65,0.00,,CLR,0.00,VWS V14.01,2013-01-09 02:25:00,
2013-01-08 21:30:00,33.3,22.8,29.35,NNE,22,4.7,4.7,65,0.00,,CLR,0.00,VWS V14.01,2013-01-09 02:30:00,
2013-01-08 21:35:00,33.1,22.6,29.35,NNE,22,3.6,3.6,65,0.00,,CLR,0.00,VWS V14.01,2013-01-09 02:35:00,
2013-01-08 21:40:00,33.3,22.8,29.35,North,0,4.0,4.0,65,0.00,,CLR,0.00,VWS V14.01,2013-01-09 02:40:00,
2013-01-08 21:45:00,33.1,22.6,29.35,NNE,22,2.0,2.0,65,0.00,,CLR,0.00,VWS V14.01,2013-01-09 02:45:00,
2013-01-08 21:50:00,33.1,22.6,29.35,NNW,338,2.7,2.7,65,0.00,,CLR,0.00,VWS V14.01,2013-01-09 02:50:00,
2013-01-08 21:55:00,33.3,22.8,29.35,North,0,3.4,3.4,65,0.00,,CLR,0.00,VWS V14.01,2013-01-09 02:55:00,
2013-01-08 22:00:00,33.3,22.8,29.32,North,0,4.9,4.9,65,0.00,,CLR,0.00,VWS V14.01,2013-01-09 03:00:00,
2013-01-08 22:05:00,33.4,23.0,29.32,NNW,338,3.1,3.1,65,0.00,,CLR,0.00,VWS V14.01,2013-01-09 03:05:00,
2013-01-08 22:10:00,33.4,23.0,29.32,NNW,338,5.6,5.6,65,0.00,,CLR,0.00,VWS V14.01,2013-01-09 03:10:00,
2013-01-08 22:15:00,33.6,23.1,29.35,NNW,338,11.0,11.0,65,0.00,,CLR,0.00,VWS V14.01,2013-01-09 03:15:00,
2013-01-08 22:20:00,33.6,22.8,29.35,NNW,338,4.3,4.3,64,0.00,,CLR,0.00,VWS V14.01,2013-01-09 03:20:00,
2013-01-08 22:25:00,33.6,22.8,29.35,NE,45,2.7,2.7,64,0.00,,CLR,0.00,VWS V14.01,2013-01-09 03:25:00,
2013-01-08 22:30:00,33.6,22.8,29.32,NNW,338,5.8,5.8,64,0.00,,CLR,0.00,VWS V14.01,2013-01-09 03:30:00,
2013-01-08 22:35:00,33.6,23.1,29.32,NW,315,3.1,3.1,65,0.00,,CLR,0.00,VWS V14.01,2013-01-09 03:35:00,
2013-01-08 22:40:00,33.6,22.8,29.32,NNW,338,2.5,2.5,64,0.00,,CLR,0.00,VWS V14.01,2013-01-09 03:40:00,
2013-01-08 22:45:00,33.6,22.8,29.32,NNW,338,4.3,4.3,64,0.00,,CLR,0.00,VWS V14.01,2013-01-09 03:45:00,
2013-01-08 22:50:00,33.6,23.1,29.32,North,0,3.1,3.1,65,0.00,,CLR,0.00,VWS V14.01,2013-01-09 03:50:00,
2013-01-08 22:55:00,33.6,23.1,29.32,North,0,3.1,3.1,65,0.00,,CLR,0.00,VWS V14.01,2013-01-09 03:55:00,
2013-01-08 23:00:00,33.6,22.8,29.32,NNW,338,3.6,3.6,64,0.00,,CLR,0.00,VWS V14.01,2013-01-09 04:00:00,
2013-01-08 23:05:00,33.6,22.8,29.32,NNW,338,5.6,5.6,64,0.00,,CLR,0.00,VWS V14.01,2013-01-09 04:05:00,
2013-01-08 23:10:00,33.6,22.8,29.32,WNW,292,2.7,2.7,64,0.00,,CLR,0.00,VWS V14.01,2013-01-09 04:10:00,
2013-01-08 23:15:00,33.6,23.1,29.32,NNW,338,5.4,5.4,65,0.00,,CLR,0.00,VWS V14.01,2013-01-09 04:15:00,
2013-01-08 23:20:00,33.6,22.8,29.32,NNE,22,2.5,2.5,64,0.00,,CLR,0.00,VWS V14.01,2013-01-09 04:20:00,
2013-01-08 23:25:00,33.6,22.8,29.32,NNW,338,2.9,2.9,64,0.00,,CLR,0.00,VWS V14.01,2013-01-09 04:25:00,
2013-01-08 23:30:00,33.8,22.5,29.32,NW,315,2.9,2.9,63,0.00,,CLR,0.00,VWS V14.01,2013-01-09 04:30:00,
2013-01-08 23:35:00,33.6,22.8,29.32,NNW,338,3.4,3.4,64,0.00,,CLR,0.00,VWS V14.01,2013-01-09 04:35:00,
2013-01-08 23:40:00,33.6,22.8,29.32,NNE,22,3.4,3.4,64,0.00,,CLR,0.00,VWS V14.01,2013-01-09 04:40:00,
2013-01-08 23:45:00,33.4,22.6,29.32,NNW,338,0.0,0.0,64,0.00,,CLR,0.00,VWS V14.01,2013-01-09 04:45:00,
2013-01-08 23:50:00,33.4,22.6,29.32,North,0,2.0,2.0,64,0.00,,CLR,0.00,VWS V14.01,2013-01-09 04:50:00,
2013-01-08 23:55:00,33.4,22.6,29.32,NNE,22,5.6,5.6,64,0.00,,CLR,0.00,VWS V14.01,2013-01-09 04:55:00,